SCP
0 0 0 0 0 0 0 0 0 0 0 0 0 0 0 0 0 0 0 0 0 0 0 0 0 0 0 0 0 0 0 1 1 1 1 1 0 0 0 0 0 0 0
0 0 0 0 0 0 0 0 0 0 0 0 0 0 0 0 0 0 0 0 0 0 0 0 0 0 0 0 0 0 0 0 1 1 1 1 1 0 0 0 0 0 0
0 0 0 0 0 0 0 0 0 0 0 0 0 0 0 0 0 0 0 0 0 0 0 0 0 0 0 0 0 0 0 1 1 1 1 1 1 1 1 0 0 0 0
0 0 0 0 0 0 0 0 0 0 0 0 0 0 0 0 0 0 0 0 0 0 0 0 0 0 0 0 0 0 0 0 1 1 1 1 1 1 1 1 0 0 0
0 0 0 0 0 0 0 0 0 0 0 0 0 0 0 0 0 0 0 0 0 0 0 0 0 0 0 0 0 0 0 0 0 1 1 0 1 1 1 1 1 1 1
0 0 0 0 0 0 0 0 0 0 0 0 0 0 0 0 0 0 0 0 0 0 0 0 0 0 0 0 0 0 0 0 0 0 1 1 0 1 1 1 1 1 1
0 0 0 0 0 0 0 0 0 0 0 0 0 0 0 -0 0 0 0 0 0 0 0 0 0 0 0 0 0 0 0 0 0 0 0 0 1 0 0 0 1 1 1
0 0 0 0 0 0 0 0 0 0 0 0 0 -0 -0 -0 0 0 0 0 0 0 0 0 0 0 0 0 0 0 0 0 0 0 0 0 0 0 0 0 1 1 1
0 0 0 0 0 0 0 0 0 0 0 0 0 0 0 0 0 0 0 0 0 0 0 0 0 0 0 0 0 0 0 0 0 0 0 0 1 0 0 0 0 1 1
0 0 0 0 0 0 0 0 0 0 0 0 0 0 0 0 0 0 0 0 0 0 0 0 0 0 0 0 0 0 0 0 0 0 0 0 0 0 0 0 0 0 1
0 0 0 0 0 0 0 0 0 0 0 0 0 0 0 0 0 0 0 0 0 0 0 0 0 0 0 0 0 0 0 0 0 0 0 0 0 0 0 0 0 0 0
0 0 0 0 0 0 0 0 0 0 0 0 0 0 0 0 0 0 0 0 0 0 0 0 0 0 0 0 0 0 0 0 0 0 0 0 0 0 0 0 0 0 -0
0 0 0 0 0 0 0 0 0 0 0 0 0 0 0 0 0 0 0 0 0 0 0 0 0 0 0 0 0 0 0 0 0 0 0 0 0 0 0 0 0 0 0
0 0 0 0 0 0 0 0 0 0 0 0 0 0 0 0 0 0 0 0 0 0 0 0 0 0 0 0 0 0 0 0 0 0 0 0 0 0 0 0 0 0 0
0 0 0 0 0 0 0 0 0 0 0 0 0 0 0 0 0 0 0 0 0 0 0 0 0 0 0 0 0 0 0 0 0 0 0 0 0 0 0 0 0 0 0
0 0 0 0 0 0 0 0 0 0 0 0 0 0 0 0 0 0 0 0 0 0 0 0 0 0 0 0 0 0 0 0 0 0 0 0 0 0 0 0 0 0 0
0 0 0 0 0 0 0 0 0 0 0 0 0 0 0 0 0 0 0 0 0 0 0 0 0 0 0 0 0 0 0 0 0 0 0 0 0 -0 0 0 0 0 0
0 0 0 0 0 0 0 0 0 0 0 0 0 0 0 0 0 0 0 0 0 0 0 0 0 0 0 0 0 0 0 0 0 0 0 0 0 -0 0 0 0 0 0
0 0 0 0 0 0 0 0 0 0 0 0 0 0 0 0 0 0 0 0 0 0 0 0 0 0 0 0 0 0 0 0 0 0 0 0 0 0 0 0 0 0 0
0 0 0 0 0 0 0 0 0 0 0 0 0 0 0 0 0 0 0 0 0 0 0 0 0 0 0 0 -0 -0 0 0 0 0 0 0 0 0 0 0 0 0 0
0 0 0 0 0 0 0 0 0 0 0 0 0 0 0 0 0 0 0 0 0 0 0 0 0 0 0 0 -0 0 0 0 0 0 0 0 0 0 0 0 0 0 0
0 0 0 0 0 0 0 0 0 0 0 0 0 0 0 0 0 0 0 0 0 0 0 0 0 0 0 0 0 0 0 -0 0 0 0 0 0 0 0 0 0 0 0
0 0 0 0 0 0 0 0 0 0 0 0 0 0 0 0 0 0 0 0 0 0 0 0 0 0 0 0 0 0 0 -0 0 0 0 0 0 0 0 0 0 0 0
0 0 0 0 0 0 0 0 0 0 0 0 0 0 0 0 0 0 0 0 0 0 0 0 0 0 0 0 -0 0 0 0 0 0 0 0 0 0 0 0 0 0 0
0 0 0 0 0 0 0 0 0 0 0 0 0 0 0 0 0 0 0 0 0 0 0 0 0 0 0 -0 -0 -0 0 0 0 0 0 0 0 0 0 0 0 0 0
0 0 0 0 0 0 0 0 0 0 0 0 0 0 0 0 0 0 0 0 0 0 0 0 0 0 0 0 -0 -0 0 0 0 0 0 0 0 0 0 0 0 0 0
Wind_Speed_500mb
9 11 14 17 21 24 28 30 33 35 37 38 40 44 44 45 45 48 51 50 50 53 58 63 68 75 75 76 72 78 84 84 82 79 86 90 86 81 75 72 72 75 72
12 15 18 22 26 29 31 33 36 38 40 42 45 46 49 50 51 53 54 57 56 57 58 61 65 72 79 84 86 76 77 87 89 91 87 90 93 89 86 76 76 78 81
14 16 20 24 29 32 33 36 38 40 43 43 46 47 48 50 51 53 55 56 58 59 60 60 64 69 74 80 84 92 87 81 91 92 93 94 95 95 93 87 80 77 85
17 18 23 28 31 33 35 38 41 42 44 47 49 48 49 50 51 52 49 54 53 50 53 54 55 58 66 76 82 81 81 88 85 95 97 101 97 97 100 98 88 83 87
18 22 24 27 30 32 35 38 40 45 47 49 51 51 51 55 52 56 51 46 56 61 63 62 59 58 58 63 70 78 78 79 98 87 99 108 98 101 107 108 99 91 88
19 23 25 28 30 32 35 37 40 40 45 52 57 59 58 56 66 53 53 77 74 66 63 65 67 69 64 64 66 67 70 74 78 95 90 97 117 103 113 113 107 101 93
22 24 25 27 29 31 33 38 39 39 41 52 67 77 74 70 59 55 94 79 57 77 72 72 80 84 81 73 71 67 65 67 71 78 97 94 96 96 114 145 127 109 99
25 25 26 27 28 29 31 34 37 39 44 50 60 62 48 78 39 104 59 78 93 65 63 61 71 85 89 88 80 76 68 62 67 71 77 94 97 92 102 109 126 114 106
25 27 26 28 29 30 30 30 33 39 43 48 52 44 28 31 95 67 107 83 36 78 74 76 82 79 71 77 81 76 77 69 59 64 74 78 97 94 86 106 92 132 109
26 28 28 28 28 28 27 27 30 35 44 50 56 54 52 47 30 74 98 50 85 74 87 84 81 86 86 87 84 78 71 74 63 58 67 76 83 87 85 84 78 107 99
27 28 28 28 27 26 25 26 28 35 43 50 55 62 65 58 49 54 95 117 103 76 79 83 83 89 92 97 80 81 66 64 62 66 57 63 76 73 79 79 86 81 89
30 29 29 28 25 24 23 26 31 39 45 52 59 63 68 57 60 60 72 99 98 105 84 80 74 84 89 78 75 66 73 68 63 57 57 56 66 74 76 88 76 108 109
32 30 29 26 24 23 23 28 35 42 49 57 62 67 70 56 60 64 74 95 96 103 94 79 76 66 73 78 70 73 69 65 63 61 58 46 56 68 70 82 85 69 111
34 31 29 26 25 22 24 32 38 45 53 59 65 70 65 62 61 63 69 79 99 100 87 80 67 65 74 86 78 70 76 69 59 64 59 51 44 58 76 79 64 75 71
34 32 29 27 24 22 27 34 40 48 56 62 69 73 63 64 59 61 62 63 73 96 105 87 82 73 73 91 77 75 67 68 73 57 50 51 41 52 60 70 73 77 77
36 32 30 27 24 24 29 36 42 50 59 65 71 69 64 59 54 53 55 59 62 76 100 82 90 93 82 79 79 72 63 62 68 57 38 47 46 44 39 66 68 70 75
37 33 31 27 24 25 31 36 44 52 60 67 69 65 63 54 53 55 55 58 65 72 80 90 88 76 76 78 71 61 59 55 60 49 32 38 49 46 60 49 75 58 86
38 34 31 27 25 25 30 36 44 52 60 67 67 63 61 51 53 52 54 55 58 49 51 73 73 77 75 69 68 68 62 44 50 43 33 40 39 48 50 45 50 67 60
39 36 32 27 26 26 29 35 44 53 59 65 64 61 57 46 52 50 51 51 50 45 45 54 73 67 73 75 69 54 46 38 27 34 24 40 38 39 57 45 44 48 55
40 36 32 28 27 26 28 34 44 52 57 60 59 57 48 44 48 44 44 45 42 43 48 55 63 72 73 69 65 55 50 24 27 20 17 25 42 39 48 50 45 49 47
39 36 34 30 27 25 27 34 42 51 56 60 59 55 43 35 39 32 35 41 38 44 53 58 71 76 76 60 54 53 36 17 12 15 18 26 32 37 36 44 46 50 42
42 39 36 32 27 24 26 33 42 49 54 59 63 56 42 32 34 27 26 31 36 44 51 56 63 64 58 48 44 40 35 25 7 9 13 19 27 40 41 39 48 50 50
43 39 38 33 27 25 26 30 39 46 51 55 59 58 45 33 32 32 25 29 33 37 38 45 58 52 44 32 31 34 35 24 6 6 9 8 15 18 26 38 49 52 49
44 41 40 34 29 28 25 28 35 43 47 52 56 57 49 37 28 32 31 33 36 38 41 43 42 39 31 27 24 29 24 10 7 11 22 27 27 21 14 3 37 43 45
45 42 39 37 32 28 25 27 31 38 44 48 52 50 43 36 24 27 27 30 30 29 30 29 33 31 30 29 25 18 2 10 13 20 36 45 52 50 39 41 38 32 30
43 42 42 40 36 31 27 25 28 35 39 44 46 48 42 35 23 26 25 20 26 32 38 33 26 24 24 23 21 14 8 4 24 19 34 37 46 40 41 82 85 89 81
Wind_Direction_500mb
309 313 315 315 314 315 314 316 316 317 314 312 311 307 308 307 307 305 302 297 290 283 278 273 267 260 253 254 257 261 260 257 253 251 249 247 246 248 248 243 230 222 217
315 321 321 319 318 318 320 319 318 314 315 315 313 314 314 316 315 312 308 303 300 294 287 280 273 269 264 256 252 251 260 259 255 251 250 249 246 244 245 243 233 227 220
310 316 316 319 320 321 321 317 314 315 317 315 315 318 319 318 316 314 311 310 307 304 299 291 283 275 268 264 259 254 247 256 255 253 252 251 248 244 241 241 238 236 223
307 314 320 321 320 318 316 315 316 318 320 320 322 323 323 321 324 321 319 315 313 314 312 306 300 292 280 271 265 263 260 248 253 253 253 249 249 244 242 239 238 236 229
302 310 315 316 314 313 314 316 321 324 326 325 325 324 326 325 325 322 321 322 319 313 310 304 299 298 292 281 275 267 265 261 245 256 250 251 252 243 241 237 237 236 231
295 303 311 316 313 315 317 319 324 328 329 327 326 324 326 328 328 321 321 320 312 311 307 298 294 294 288 284 278 276 274 267 261 246 253 251 249 239 235 235 234 235 230
294 302 315 315 315 315 319 325 327 329 332 334 332 330 333 335 328 321 320 310 311 309 300 291 287 286 279 277 278 276 275 272 267 262 247 251 252 249 247 245 236 236 229
294 309 316 312 310 317 322 324 327 333 337 343 340 340 334 338 326 321 320 314 314 316 307 296 289 286 283 281 277 272 275 278 267 262 258 254 250 253 248 248 242 229 227
297 303 306 308 311 316 320 325 331 333 336 337 338 340 335 319 325 327 317 315 319 313 302 305 307 305 298 289 283 277 269 271 265 264 259 254 249 252 251 242 235 220 221
290 300 304 304 306 312 318 323 328 333 331 331 331 330 321 308 313 317 315 304 308 309 306 306 303 300 297 292 290 288 274 269 265 264 259 253 248 250 249 245 242 243 219
288 294 298 299 303 311 314 320 326 325 326 325 324 322 318 316 296 272 290 305 306 304 302 302 299 301 302 302 295 288 288 270 266 260 261 257 247 248 244 242 239 230 215
284 289 293 295 301 305 308 314 320 324 323 321 320 318 317 311 301 289 282 293 297 301 299 296 292 294 303 303 304 290 278 283 267 261 263 263 255 242 238 238 241 231 228
280 284 287 291 294 295 300 309 317 321 320 320 320 321 321 314 303 293 287 292 295 299 298 296 297 299 301 304 297 291 294 285 279 270 259 264 250 245 236 231 238 238 224
276 280 283 285 285 288 297 307 316 320 320 321 322 321 323 309 305 296 292 296 298 299 300 300 301 296 297 308 303 299 290 294 278 271 259 258 253 245 234 231 236 235 217
273 276 279 280 280 283 295 307 317 321 322 324 325 322 323 317 307 301 301 301 294 297 299 305 303 299 297 306 304 303 294 291 285 270 264 242 255 250 233 228 226 227 222
268 271 272 274 273 282 297 309 317 323 325 326 323 327 328 321 311 307 311 309 305 295 293 302 304 305 305 306 305 302 295 298 279 270 258 238 244 243 241 225 226 230 228
263 266 268 268 267 282 299 311 320 326 326 325 327 332 327 321 320 325 325 320 311 303 289 301 304 312 309 307 308 304 301 297 275 256 252 246 241 241 244 228 229 219 218
258 261 262 261 266 282 299 313 321 326 327 326 334 330 328 330 333 331 332 326 318 311 304 298 312 316 315 315 308 301 297 289 273 265 244 225 234 237 230 231 227 224 224
252 254 256 256 264 281 300 314 322 327 328 331 334 331 332 334 331 335 340 335 326 318 310 306 311 321 324 323 322 313 291 287 268 258 223 218 227 227 234 233 221 222 227
247 250 252 250 261 281 300 314 322 327 331 333 333 334 332 336 330 337 347 337 329 324 320 316 320 319 324 330 327 321 328 295 287 254 235 232 229 225 228 236 223 220 216
243 245 247 247 259 280 301 314 323 328 332 333 339 337 329 328 326 339 346 339 333 330 321 324 327 321 331 336 332 337 328 325 272 269 245 247 226 225 224 227 223 222 228
238 241 243 245 257 277 298 313 323 330 333 336 337 339 331 315 324 331 339 332 330 324 314 322 327 332 335 340 343 343 339 337 307 327 283 264 228 224 231 224 219 220 227
236 239 240 242 252 273 292 310 321 329 333 337 337 337 337 316 314 315 322 319 322 327 322 315 325 332 328 333 342 337 325 326 273 150 129 163 153 200 219 225 216 215 216
234 236 237 241 250 267 285 303 318 327 333 337 340 339 336 324 315 314 316 323 329 331 325 330 333 331 327 323 324 319 317 305 166 150 138 102 119 123 155 167 206 214 215
230 234 236 242 248 261 278 296 314 324 331 336 341 340 340 326 314 315 316 331 329 336 345 344 340 339 343 345 349 336 270 176 116 99 117 96 93 102 124 122 137 196 181
230 232 237 242 249 255 268 284 304 318 327 333 343 344 342 336 321 306 312 329 341 353 352 347 341 348 5 6 355 351 309 184 117 102 121 120 123 111 85 98 109 117 132
Wind_Speed_850mb
9 11 14 17 21 24 28 30 33 35 37 38 40 44 44 45 45 48 51 50 50 53 58 63 68 75 75 76 72 78 84 84 82 79 86 90 86 81 75 72 72 75 72
12 15 18 22 26 29 31 33 36 38 40 42 45 46 49 50 51 53 54 57 56 57 58 61 65 72 79 84 86 76 77 87 89 91 87 90 93 89 86 76 76 78 81
14 16 20 24 29 32 33 36 38 40 43 43 46 47 48 50 51 53 55 56 58 59 60 60 64 69 74 80 84 92 87 81 91 92 93 94 95 95 93 87 80 77 85
17 18 23 28 31 33 35 38 41 42 44 47 49 48 49 50 51 52 49 54 53 50 53 54 55 58 66 76 82 81 81 88 85 95 97 101 97 97 100 98 88 83 87
18 22 24 27 30 32 35 38 40 45 47 49 51 51 51 55 52 56 51 46 56 61 63 62 59 58 58 63 70 78 78 79 98 87 99 108 98 101 107 108 99 91 88
19 23 25 28 30 32 35 37 40 40 45 52 57 59 58 56 66 53 53 77 74 66 63 65 67 69 64 64 66 67 70 74 78 95 90 97 117 103 113 113 107 101 93
22 24 25 27 29 31 33 38 39 39 41 52 67 77 74 70 59 55 94 79 57 77 72 72 80 84 81 73 71 67 65 67 71 78 97 94 96 96 114 145 127 109 99
25 25 26 27 28 29 31 34 37 39 44 50 60 62 48 78 39 104 59 78 93 65 63 61 71 85 89 88 80 76 68 62 67 71 77 94 97 92 102 109 126 114 106
25 27 26 28 29 30 30 30 33 39 43 48 52 44 28 31 95 67 107 83 36 78 74 76 82 79 71 77 81 76 77 69 59 64 74 78 97 94 86 106 92 132 109
26 28 28 28 28 28 27 27 30 35 44 50 56 54 52 47 30 74 98 50 85 74 87 84 81 86 86 87 84 78 71 74 63 58 67 76 83 87 85 84 78 107 99
27 28 28 28 27 26 25 26 28 35 43 50 55 62 65 58 49 54 95 117 103 76 79 83 83 89 92 97 80 81 66 64 62 66 57 63 76 73 79 79 86 81 89
30 29 29 28 25 24 23 26 31 39 45 52 59 63 68 57 60 60 72 99 98 105 84 80 74 84 89 78 75 66 73 68 63 57 57 56 66 74 76 88 76 108 109
32 30 29 26 24 23 23 28 35 42 49 57 62 67 70 56 60 64 74 95 96 103 94 79 76 66 73 78 70 73 69 65 63 61 58 46 56 68 70 82 85 69 111
34 31 29 26 25 22 24 32 38 45 53 59 65 70 65 62 61 63 69 79 99 100 87 80 67 65 74 86 78 70 76 69 59 64 59 51 44 58 76 79 64 75 71
34 32 29 27 24 22 27 34 40 48 56 62 69 73 63 64 59 61 62 63 73 96 105 87 82 73 73 91 77 75 67 68 73 57 50 51 41 52 60 70 73 77 77
36 32 30 27 24 24 29 36 42 50 59 65 71 69 64 59 54 53 55 59 62 76 100 82 90 93 82 79 79 72 63 62 68 57 38 47 46 44 39 66 68 70 75
37 33 31 27 24 25 31 36 44 52 60 67 69 65 63 54 53 55 55 58 65 72 80 90 88 76 76 78 71 61 59 55 60 49 32 38 49 46 60 49 75 58 86
38 34 31 27 25 25 30 36 44 52 60 67 67 63 61 51 53 52 54 55 58 49 51 73 73 77 75 69 68 68 62 44 50 43 33 40 39 48 50 45 50 67 60
39 36 32 27 26 26 29 35 44 53 59 65 64 61 57 46 52 50 51 51 50 45 45 54 73 67 73 75 69 54 46 38 27 34 24 40 38 39 57 45 44 48 55
40 36 32 28 27 26 28 34 44 52 57 60 59 57 48 44 48 44 44 45 42 43 48 55 63 72 73 69 65 55 50 24 27 20 17 25 42 39 48 50 45 49 47
39 36 34 30 27 25 27 34 42 51 56 60 59 55 43 35 39 32 35 41 38 44 53 58 71 76 76 60 54 53 36 17 12 15 18 26 32 37 36 44 46 50 42
42 39 36 32 27 24 26 33 42 49 54 59 63 56 42 32 34 27 26 31 36 44 51 56 63 64 58 48 44 40 35 25 7 9 13 19 27 40 41 39 48 50 50
43 39 38 33 27 25 26 30 39 46 51 55 59 58 45 33 32 32 25 29 33 37 38 45 58 52 44 32 31 34 35 24 6 6 9 8 15 18 26 38 49 52 49
44 41 40 34 29 28 25 28 35 43 47 52 56 57 49 37 28 32 31 33 36 38 41 43 42 39 31 27 24 29 24 10 7 11 22 27 27 21 14 3 37 43 45
45 42 39 37 32 28 25 27 31 38 44 48 52 50 43 36 24 27 27 30 30 29 30 29 33 31 30 29 25 18 2 10 13 20 36 45 52 50 39 41 38 32 30
43 42 42 40 36 31 27 25 28 35 39 44 46 48 42 35 23 26 25 20 26 32 38 33 26 24 24 23 21 14 8 4 24 19 34 37 46 40 41 82 85 89 81
Wind_Direction_850mb
309 313 315 315 314 315 314 316 316 317 314 312 311 307 308 307 307 305 302 297 290 283 278 273 267 260 253 254 257 261 260 257 253 251 249 247 246 248 248 243 230 222 217
315 321 321 319 318 318 320 319 318 314 315 315 313 314 314 316 315 312 308 303 300 294 287 280 273 269 264 256 252 251 260 259 255 251 250 249 246 244 245 243 233 227 220
310 316 316 319 320 321 321 317 314 315 317 315 315 318 319 318 316 314 311 310 307 304 299 291 283 275 268 264 259 254 247 256 255 253 252 251 248 244 241 241 238 236 223
307 314 320 321 320 318 316 315 316 318 320 320 322 323 323 321 324 321 319 315 313 314 312 306 300 292 280 271 265 263 260 248 253 253 253 249 249 244 242 239 238 236 229
302 310 315 316 314 313 314 316 321 324 326 325 325 324 326 325 325 322 321 322 319 313 310 304 299 298 292 281 275 267 265 261 245 256 250 251 252 243 241 237 237 236 231
295 303 311 316 313 315 317 319 324 328 329 327 326 324 326 328 328 321 321 320 312 311 307 298 294 294 288 284 278 276 274 267 261 246 253 251 249 239 235 235 234 235 230
294 302 315 315 315 315 319 325 327 329 332 334 332 330 333 335 328 321 320 310 311 309 300 291 287 286 279 277 278 276 275 272 267 262 247 251 252 249 247 245 236 236 229
294 309 316 312 310 317 322 324 327 333 337 343 340 340 334 338 326 321 320 314 314 316 307 296 289 286 283 281 277 272 275 278 267 262 258 254 250 253 248 248 242 229 227
297 303 306 308 311 316 320 325 331 333 336 337 338 340 335 319 325 327 317 315 319 313 302 305 307 305 298 289 283 277 269 271 265 264 259 254 249 252 251 242 235 220 221
290 300 304 304 306 312 318 323 328 333 331 331 331 330 321 308 313 317 315 304 308 309 306 306 303 300 297 292 290 288 274 269 265 264 259 253 248 250 249 245 242 243 219
288 294 298 299 303 311 314 320 326 325 326 325 324 322 318 316 296 272 290 305 306 304 302 302 299 301 302 302 295 288 288 270 266 260 261 257 247 248 244 242 239 230 215
284 289 293 295 301 305 308 314 320 324 323 321 320 318 317 311 301 289 282 293 297 301 299 296 292 294 303 303 304 290 278 283 267 261 263 263 255 242 238 238 241 231 228
280 284 287 291 294 295 300 309 317 321 320 320 320 321 321 314 303 293 287 292 295 299 298 296 297 299 301 304 297 291 294 285 279 270 259 264 250 245 236 231 238 238 224
276 280 283 285 285 288 297 307 316 320 320 321 322 321 323 309 305 296 292 296 298 299 300 300 301 296 297 308 303 299 290 294 278 271 259 258 253 245 234 231 236 235 217
273 276 279 280 280 283 295 307 317 321 322 324 325 322 323 317 307 301 301 301 294 297 299 305 303 299 297 306 304 303 294 291 285 270 264 242 255 250 233 228 226 227 222
268 271 272 274 273 282 297 309 317 323 325 326 323 327 328 321 311 307 311 309 305 295 293 302 304 305 305 306 305 302 295 298 279 270 258 238 244 243 241 225 226 230 228
263 266 268 268 267 282 299 311 320 326 326 325 327 332 327 321 320 325 325 320 311 303 289 301 304 312 309 307 308 304 301 297 275 256 252 246 241 241 244 228 229 219 218
258 261 262 261 266 282 299 313 321 326 327 326 334 330 328 330 333 331 332 326 318 311 304 298 312 316 315 315 308 301 297 289 273 265 244 225 234 237 230 231 227 224 224
252 254 256 256 264 281 300 314 322 327 328 331 334 331 332 334 331 335 340 335 326 318 310 306 311 321 324 323 322 313 291 287 268 258 223 218 227 227 234 233 221 222 227
247 250 252 250 261 281 300 314 322 327 331 333 333 334 332 336 330 337 347 337 329 324 320 316 320 319 324 330 327 321 328 295 287 254 235 232 229 225 228 236 223 220 216
243 245 247 247 259 280 301 314 323 328 332 333 339 337 329 328 326 339 346 339 333 330 321 324 327 321 331 336 332 337 328 325 272 269 245 247 226 225 224 227 223 222 228
238 241 243 245 257 277 298 313 323 330 333 336 337 339 331 315 324 331 339 332 330 324 314 322 327 332 335 340 343 343 339 337 307 327 283 264 228 224 231 224 219 220 227
236 239 240 242 252 273 292 310 321 329 333 337 337 337 337 316 314 315 322 319 322 327 322 315 325 332 328 333 342 337 325 326 273 150 129 163 153 200 219 225 216 215 216
234 236 237 241 250 267 285 303 318 327 333 337 340 339 336 324 315 314 316 323 329 331 325 330 333 331 327 323 324 319 317 305 166 150 138 102 119 123 155 167 206 214 215
230 234 236 242 248 261 278 296 314 324 331 336 341 340 340 326 314 315 316 331 329 336 345 344 340 339 343 345 349 336 270 176 116 99 117 96 93 102 124 122 137 196 181
230 232 237 242 249 255 268 284 304 318 327 333 343 344 342 336 321 306 312 329 341 353 352 347 341 348 5 6 355 351 309 184 117 102 121 120 123 111 85 98 109 117 132